Weather History for Cadillac, MI

Change the Weather History Date:

Monday, March 31, 2014

  Actual Average Record
Temperature  
Mean Temperature 38 °F -  
Max Temperature 50 °F 45 °F 71 °F (1967)
Min Temperature 27 °F 24 °F 4 °F (1969)
Degree Days  
Heating Degree Days 26    
Moisture  
Dew Point 29 °F    
Average Humidity 62    
Maximum Humidity 87    
Minimum Humidity 44    
Precipitation  
Precipitation 0.00 in - - ()
Sea Level Pressure  
Sea Level Pressure 30.00 in    
Wind  
Wind Speed 5 mph (SE)    
Max Wind Speed 17 mph    
Max Gust Speed 25 mph    
Visibility 10 miles    
Events      
Averages and records for this station are not official NWS values.
T = Trace of Precipitation, MM = Missing Value Source: NWS Daily Summary

Daily Weather History Graph

Daily Weather History Graph

Search for Another Location

Airport:

Trip Planner

Search our weather history database for the weather conditions in past years. The results will help you decide how hot, cold, wet, or windy it might be!

Date:

Astronomy

Mar. 31, 2014 Rise Set
Actual Time 7:24 AM EDT 8:07 PM EDT
Civil Twilight 6:55 AM EDT 8:37 PM EDT
Nautical Twilight 6:20 AM EDT 9:11 PM EDT
Astronomical Twilight 5:44 AM EDT 9:48 PM EDT
Moon 7:45 AM EDT (3/31) 9:29 PM EDT (3/31)
Length of Visible Light 13h 41m
Length of Day
12h 43m
New Moon, 1% of the Moon is Illuminated
Mar 31
New Moon
Apr 7
First Quarter
Apr 15
Full
Apr 22
Last Quarter
Apr 29
New

Hourly Weather History & Observations

Time (EDT) Temp. Windchill Dew Point Humidity Pressure Visibility Wind Dir Wind Speed Gust Speed Precip Events Conditions
12:14 AM 29.3 °F - 23.9 °F 80% 30.06 in 10.0 mi Calm Calm - N/A   Clear
12:34 AM 28.9 °F - 23.7 °F 81% 30.07 in 10.0 mi Calm Calm - N/A   Clear
12:55 AM 29.5 °F - 25.2 °F 84% 30.07 in 10.0 mi Calm Calm - N/A   Clear
1:14 AM 29.3 °F - 23.9 °F 80% 30.07 in 10.0 mi Calm Calm - N/A   Clear
1:35 AM 32.7 °F - 23.9 °F 70% 30.07 in 10.0 mi Calm Calm - N/A   Clear
1:55 AM 36.3 °F - 24.6 °F 63% 30.07 in 10.0 mi Calm Calm - N/A   Clear
2:14 AM 37.6 °F 35.1 °F 25.2 °F 61% 30.07 in 10.0 mi South 3.5 mph - N/A   Clear
2:35 AM 36.7 °F 32.0 °F 25.7 °F 64% 30.08 in 10.0 mi SSW 5.8 mph - N/A   Clear
2:55 AM 37.6 °F 33.1 °F 25.7 °F 62% 30.08 in 10.0 mi SSW 5.8 mph - N/A   Clear
3:14 AM 36.3 °F 31.6 °F 25.9 °F 66% 30.07 in 10.0 mi SSW 5.8 mph - N/A   Clear
3:35 AM 35.8 °F 31.9 °F 25.7 °F 67% 30.07 in 10.0 mi SSW 4.6 mph - N/A   Clear
3:55 AM 35.2 °F - 25.3 °F 67% 30.07 in 10.0 mi Calm Calm - N/A   Clear
4:14 AM 34.7 °F - 24.4 °F 66% 30.07 in 10.0 mi Calm Calm - N/A   Clear
4:35 AM 32.0 °F - 24.8 °F 75% 30.08 in 10.0 mi Calm Calm - N/A   Clear
4:55 AM 32.0 °F 27.5 °F 24.6 °F 74% 30.08 in 10.0 mi ENE 4.6 mph - N/A   Clear
5:14 AM 31.3 °F 27.9 °F 23.9 °F 74% 30.07 in 10.0 mi ENE 3.5 mph - N/A   Clear
5:35 AM 30.2 °F 26.7 °F 23.9 °F 77% 30.08 in 10.0 mi ENE 3.5 mph - N/A   Clear
5:55 AM 29.8 °F 24.9 °F 24.3 °F 80% 30.08 in 10.0 mi ENE 4.6 mph - N/A   Clear
6:14 AM 28.9 °F 22.8 °F 23.9 °F 81% 30.08 in 10.0 mi ENE 5.8 mph - N/A   Clear
6:35 AM 29.1 °F 25.4 °F 24.1 °F 81% 30.08 in 10.0 mi ENE 3.5 mph - N/A   Clear
6:55 AM 28.6 °F 24.8 °F 24.4 °F 84% 30.08 in 10.0 mi ENE 3.5 mph - N/A   Clear
7:14 AM 29.3 °F 25.6 °F 24.4 °F 82% 30.08 in 10.0 mi East 3.5 mph - N/A   Clear
7:35 AM 27.5 °F - 24.1 °F 87% 30.09 in 10.0 mi Calm Calm - N/A   Clear
7:55 AM 28.0 °F - 23.7 °F 84% 30.09 in 10.0 mi Calm Calm - N/A   Clear
8:14 AM 30.4 °F - 24.6 °F 79% 30.09 in 10.0 mi Calm Calm - N/A   Clear
8:35 AM 31.1 °F - 25.2 °F 79% 30.08 in 10.0 mi Calm Calm - N/A   Clear
8:55 AM 32.7 °F 29.6 °F 27.0 °F 79% 30.08 in 10.0 mi ENE 3.5 mph - N/A   Clear
9:14 AM 34.7 °F 30.6 °F 28.6 °F 78% 30.08 in 10.0 mi East 4.6 mph - N/A   Clear
9:35 AM 42.6 °F 39.0 °F 30.7 °F 63% 30.07 in 10.0 mi SSE 5.8 mph - N/A   Clear
9:55 AM 44.8 °F 40.4 °F 30.9 °F 58% 30.06 in 10.0 mi SSE 8.1 mph - N/A   Clear
10:14 AM 45.5 °F 42.5 °F 30.9 °F 57% 30.06 in 10.0 mi SSE 5.8 mph - N/A   Clear
10:35 AM 45.9 °F 41.2 °F 30.7 °F 56% 30.06 in 10.0 mi SSE 9.2 mph - N/A   Clear
10:54 AM 46.2 °F 41.7 °F 30.2 °F 54% 30.05 in 10.0 mi SSE 9.2 mph - N/A   Clear
11:14 AM 46.8 °F - 30.2 °F 53% 30.05 in 10.0 mi SSE 9.2 mph - N/A   Clear
11:35 AM 47.8 °F - 29.3 °F 49% 30.05 in 10.0 mi SSE 10.4 mph - N/A   Clear
11:54 AM 48.2 °F - 29.3 °F 48% 30.05 in 10.0 mi SSE 9.2 mph - N/A   Clear
12:14 PM 48.6 °F - 28.9 °F 47% 30.04 in 10.0 mi SE 8.1 mph - N/A   Clear
12:35 PM 48.4 °F - 30.0 °F 49% 30.04 in 10.0 mi SE 5.8 mph - N/A   Clear
12:54 PM 48.0 °F - 31.1 °F 52% 30.05 in 10.0 mi SE 6.9 mph - N/A   Clear
1:15 PM 46.8 °F - 31.8 °F 56% 30.05 in 10.0 mi ESE 9.2 mph - N/A   Clear
1:35 PM 48.9 °F - 30.7 °F 50% 30.04 in 10.0 mi ESE 11.5 mph - N/A   Clear
1:54 PM 50.2 °F - 29.3 °F 45% 30.04 in 10.0 mi SE 11.5 mph - N/A   Clear
2:15 PM 50.4 °F - 30.2 °F 46% 30.03 in 10.0 mi ESE 12.7 mph - N/A   Scattered Clouds
2:35 PM 50.7 °F - 29.3 °F 44% 30.03 in 10.0 mi ESE 11.5 mph 17.3 mph N/A   Scattered Clouds
2:54 PM 49.5 °F - 30.4 °F 48% 30.02 in 10.0 mi ESE 11.5 mph - N/A   Scattered Clouds
3:15 PM 50.7 °F - 30.6 °F 46% 30.01 in 10.0 mi SE 12.7 mph 19.6 mph N/A   Scattered Clouds
3:35 PM 50.4 °F - 30.9 °F 47% 29.99 in 10.0 mi ESE 15.0 mph - N/A   Clear
3:54 PM 49.6 °F - 31.1 °F 49% 29.98 in 10.0 mi SE 12.7 mph 21.9 mph N/A   Clear
4:15 PM 49.8 °F - 32.0 °F 50% 29.98 in 10.0 mi ESE 11.5 mph 23.0 mph N/A   Clear
4:35 PM 47.8 °F - 33.3 °F 57% 29.96 in 10.0 mi ESE 10.4 mph - N/A   Clear
4:54 PM 48.0 °F - 33.8 °F 58% 29.94 in 10.0 mi ESE 11.5 mph 16.1 mph N/A   Clear
5:15 PM 48.2 °F - 33.8 °F 58% 29.94 in 10.0 mi ESE 13.8 mph 17.3 mph N/A   Clear
5:35 PM 48.4 °F - 33.4 °F 56% 29.93 in 10.0 mi ESE 15.0 mph 18.4 mph N/A   Scattered Clouds
5:54 PM 47.8 °F - 33.3 °F 57% 29.92 in 10.0 mi ESE 11.5 mph 21.9 mph N/A   Mostly Cloudy
6:15 PM 48.2 °F - 33.1 °F 56% 29.91 in 10.0 mi ESE 16.1 mph 20.7 mph N/A   Scattered Clouds
6:35 PM 48.2 °F - 32.9 °F 55% 29.90 in 10.0 mi ESE 16.1 mph 21.9 mph N/A   Scattered Clouds
6:54 PM 48.2 °F - 32.2 °F 54% 29.89 in 10.0 mi ESE 16.1 mph 21.9 mph N/A   Clear
7:15 PM 47.7 °F - 31.8 °F 54% 29.89 in 10.0 mi ESE 16.1 mph 24.2 mph N/A   Scattered Clouds
7:35 PM 47.1 °F - 31.5 °F 55% 29.88 in 10.0 mi ESE 16.1 mph 23.0 mph N/A   Scattered Clouds
7:54 PM 47.8 °F - 31.1 °F 52% 29.88 in 10.0 mi SE 12.7 mph 24.2 mph N/A   Scattered Clouds
8:15 PM 47.1 °F - 31.1 °F 54% 29.87 in 10.0 mi ESE 17.3 mph 25.3 mph N/A   Scattered Clouds
8:35 PM 47.5 °F - 31.1 °F 53% 29.88 in 10.0 mi SE 12.7 mph 19.6 mph N/A   Mostly Cloudy
8:54 PM 46.4 °F 40.4 °F 31.8 °F 57% 29.86 in 10.0 mi ESE 13.8 mph 18.4 mph N/A   Mostly Cloudy
9:15 PM 47.1 °F - 32.0 °F 56% 29.86 in 10.0 mi ESE 15.0 mph 19.6 mph N/A   Scattered Clouds
9:34 PM 46.4 °F 40.1 °F 31.8 °F 57% 29.86 in 10.0 mi SE 15.0 mph 23.0 mph N/A   Mostly Cloudy
9:55 PM 47.3 °F - 32.0 °F 55% 29.85 in 10.0 mi ESE 15.0 mph 23.0 mph N/A   Overcast
10:15 PM 46.2 °F 40.5 °F 32.0 °F 58% 29.84 in 10.0 mi SE 12.7 mph 20.7 mph N/A   Overcast
10:34 PM 47.7 °F - 32.0 °F 55% 29.84 in 10.0 mi SE 13.8 mph 20.7 mph N/A   Overcast
10:55 PM 46.8 °F - 32.0 °F 57% 29.84 in 10.0 mi SE 11.5 mph 19.6 mph N/A   Overcast
11:15 PM 46.6 °F - 32.0 °F 57% 29.84 in 10.0 mi SSE 13.8 mph - N/A   Overcast
11:34 PM 46.4 °F 41.1 °F 32.0 °F 57% 29.83 in 10.0 mi SE 11.5 mph 17.3 mph N/A   Overcast
11:55 PM 45.7 °F 39.8 °F 32.0 °F 59% 29.84 in 10.0 mi SE 12.7 mph 18.4 mph N/A   Overcast